TimeEST,TemperatureF,Dew PointF,Humidity,Sea Level PressureIn,VisibilityMPH,Wind Direction,Wind SpeedMPH,Gust SpeedMPH,PrecipitationIn,Events,Conditions,WindDirDegrees,DateUTC
12:53 AM,45.0,30.0,56,30.08,10.0,WNW,5.8,-,N/A,,Clear,290,2013-02-20 05:53:00
1:53 AM,44.1,28.0,53,30.08,10.0,Calm,Calm,-,N/A,,Clear,0,2013-02-20 06:53:00
2:53 AM,36.0,30.9,82,30.08,9.0,Calm,Calm,-,N/A,,Clear,0,2013-02-20 07:53:00
3:53 AM,34.0,30.0,85,30.09,10.0,Calm,Calm,-,N/A,,Clear,0,2013-02-20 08:53:00
4:53 AM,33.1,30.0,89,30.11,9.0,Calm,Calm,-,N/A,,Clear,0,2013-02-20 09:53:00
5:53 AM,30.9,28.9,92,30.12,10.0,Calm,Calm,-,N/A,,Clear,0,2013-02-20 10:53:00
6:53 AM,30.0,28.0,92,30.13,10.0,Calm,Calm,-,N/A,,Clear,0,2013-02-20 11:53:00
8:53 AM,39.9,30.9,70,30.16,10.0,Calm,Calm,-,N/A,,Clear,0,2013-02-20 13:53:00
9:53 AM,46.0,19.0,34,30.17,10.0,West,5.8,-,N/A,,Clear,270,2013-02-20 14:53:00
10:53 AM,48.9,18.0,29,30.17,10.0,Calm,Calm,-,N/A,,Clear,0,2013-02-20 15:53:00
11:53 AM,52.0,18.0,26,30.14,10.0,South,3.5,-,N/A,,Clear,170,2013-02-20 16:53:00
12:53 PM,55.0,15.1,21,30.11,10.0,Calm,Calm,-,N/A,,Clear,0,2013-02-20 17:53:00
1:53 PM,55.9,14.0,19,30.08,10.0,Calm,Calm,-,N/A,,Clear,0,2013-02-20 18:53:00
2:53 PM,57.9,18.0,21,30.07,10.0,Variable,4.6,-,N/A,,Clear,0,2013-02-20 19:53:00
5:53 PM,55.9,21.9,27,30.10,10.0,Calm,Calm,-,N/A,,Clear,0,2013-02-20 22:53:00
6:53 PM,53.1,27.0,37,30.12,10.0,Calm,Calm,-,N/A,,Clear,0,2013-02-20 23:53:00
7:53 PM,50.0,32.0,50,30.09,10.0,Calm,Calm,-,N/A,,Clear,0,2013-02-21 00:53:00
8:53 PM,48.0,34.0,58,30.09,10.0,Calm,Calm,-,N/A,,Mostly Cloudy,0,2013-02-21 01:53:00
9:53 PM,44.1,34.0,68,30.10,10.0,Calm,Calm,-,N/A,,Clear,0,2013-02-21 02:53:00
10:53 PM,41.0,34.0,76,30.11,10.0,Calm,Calm,-,N/A,,Clear,0,2013-02-21 03:53:00
11:53 PM,39.0,33.1,79,30.11,10.0,Calm,Calm,-,N/A,,Clear,0,2013-02-21 04:53:00